TimeCDT,TemperatureF,Dew PointF,Humidity,Sea Level PressureIn,VisibilityMPH,Wind Direction,Wind SpeedMPH,Gust SpeedMPH,PrecipitationIn,Events,Conditions,WindDirDegrees,DateUTC
12:15 AM,37.4,35.6,93,29.86,2.5,NNW,19.6,31.1,N/A,Rain,Light Rain,330,2013-04-18 05:15:00
12:35 AM,37.4,35.6,93,29.86,3.0,NNW,21.9,33.4,N/A,Snow,Light Snow,340,2013-04-18 05:35:00
12:55 AM,37.4,35.6,93,29.89,5.0,NNW,19.6,27.6,N/A,Rain,Light Rain,330,2013-04-18 05:55:00
1:15 AM,37.4,33.8,87,29.89,4.0,NNW,19.6,34.5,N/A,Rain,Light Rain,330,2013-04-18 06:15:00
1:35 AM,35.6,33.8,93,29.91,5.0,NNW,23.0,31.1,N/A,Rain,Light Rain,330,2013-04-18 06:35:00
1:55 AM,35.6,33.8,93,29.91,4.0,NNW,24.2,35.7,N/A,Rain,Light Rain,330,2013-04-18 06:55:00
2:15 AM,35.6,33.8,93,29.90,10.0,NW,21.9,32.2,N/A,,Overcast,320,2013-04-18 07:15:00
2:35 AM,35.6,32.0,87,29.88,10.0,NNW,21.9,34.5,N/A,,Overcast,330,2013-04-18 07:35:00
2:55 AM,33.8,32.0,93,29.89,10.0,NNW,27.6,35.7,N/A,,Overcast,330,2013-04-18 07:55:00
3:15 AM,33.8,32.0,93,29.89,10.0,NW,24.2,34.5,N/A,,Overcast,320,2013-04-18 08:15:00
3:35 AM,33.8,32.0,93,29.90,10.0,NNW,26.5,38.0,N/A,,Overcast,330,2013-04-18 08:35:00
3:55 AM,33.8,32.0,93,29.90,10.0,NW,28.8,33.4,N/A,,Overcast,320,2013-04-18 08:55:00
4:15 AM,33.8,32.0,93,29.89,10.0,NW,24.2,32.2,N/A,,Overcast,320,2013-04-18 09:15:00
4:35 AM,33.8,30.2,87,29.92,10.0,NW,25.3,29.9,N/A,,Overcast,320,2013-04-18 09:35:00
4:55 AM,33.8,30.2,87,29.92,10.0,NNW,26.5,41.4,N/A,,Overcast,330,2013-04-18 09:55:00
5:15 AM,33.8,30.2,87,29.93,10.0,NNW,20.7,28.8,N/A,,Overcast,330,2013-04-18 10:15:00
5:35 AM,33.8,30.2,87,29.94,10.0,NNW,19.6,28.8,N/A,,Overcast,330,2013-04-18 10:35:00
6:15 AM,32.0,28.4,87,29.95,10.0,NNW,25.3,32.2,N/A,,Overcast,330,2013-04-18 11:15:00
6:35 AM,32.0,28.4,87,29.96,10.0,NNW,17.3,29.9,N/A,,Overcast,330,2013-04-18 11:35:00
6:55 AM,32.0,28.4,87,29.99,10.0,NNW,20.7,31.1,N/A,,Overcast,330,2013-04-18 11:55:00
7:15 AM,32.0,28.4,87,30.00,10.0,NNW,23.0,29.9,N/A,,Overcast,330,2013-04-18 12:15:00
7:35 AM,32.0,28.4,87,30.02,10.0,NW,25.3,31.1,N/A,,Overcast,320,2013-04-18 12:35:00
7:55 AM,32.0,28.4,87,30.02,10.0,NW,24.2,33.4,N/A,,Overcast,320,2013-04-18 12:55:00
8:15 AM,32.0,28.4,87,30.02,10.0,NW,25.3,35.7,N/A,,Overcast,320,2013-04-18 13:15:00
8:35 AM,33.8,28.4,81,30.03,10.0,NW,26.5,33.4,N/A,,Overcast,320,2013-04-18 13:35:00
8:55 AM,33.8,28.4,81,30.04,10.0,NW,26.5,32.2,N/A,,Mostly Cloudy,320,2013-04-18 13:55:00
9:15 AM,33.8,28.4,81,30.04,10.0,NW,25.3,32.2,N/A,,Overcast,320,2013-04-18 14:15:00
9:35 AM,35.6,28.4,75,30.04,10.0,NNW,21.9,31.1,N/A,,Overcast,330,2013-04-18 14:35:00
9:55 AM,33.8,26.6,75,30.04,10.0,NNW,24.2,33.4,N/A,,Overcast,330,2013-04-18 14:55:00
10:15 AM,35.6,28.4,75,30.05,10.0,NW,24.2,32.2,N/A,,Overcast,320,2013-04-18 15:15:00
10:35 AM,35.6,26.6,70,30.06,10.0,NW,24.2,34.5,N/A,,Overcast,320,2013-04-18 15:35:00
10:55 AM,37.4,26.6,65,30.06,10.0,NNW,24.2,33.4,N/A,,Mostly Cloudy,330,2013-04-18 15:55:00
11:15 AM,41.0,28.4,61,30.06,10.0,NNW,28.8,35.7,N/A,,Mostly Cloudy,330,2013-04-18 16:15:00
11:35 AM,41.0,28.4,61,30.06,10.0,NNW,26.5,35.7,N/A,,Mostly Cloudy,340,2013-04-18 16:35:00
11:55 AM,39.2,26.6,61,30.06,10.0,NNW,25.3,33.4,N/A,,Overcast,330,2013-04-18 16:55:00
12:15 PM,41.0,26.6,57,30.06,10.0,NW,24.2,35.7,N/A,,Overcast,320,2013-04-18 17:15:00
12:35 PM,41.0,26.6,57,30.06,10.0,NNW,25.3,36.8,N/A,,Overcast,330,2013-04-18 17:35:00
12:55 PM,41.0,26.6,57,30.07,10.0,NW,28.8,38.0,N/A,,Overcast,320,2013-04-18 17:55:00
1:15 PM,41.0,26.6,57,30.07,10.0,NW,25.3,34.5,N/A,,Overcast,320,2013-04-18 18:15:00
1:35 PM,42.8,26.6,53,30.07,10.0,NW,28.8,33.4,N/A,,Overcast,310,2013-04-18 18:35:00
1:55 PM,42.8,26.6,53,30.07,10.0,NNW,24.2,36.8,N/A,,Overcast,330,2013-04-18 18:55:00
2:15 PM,42.8,24.8,49,30.07,10.0,NW,24.2,34.5,N/A,,Overcast,320,2013-04-18 19:15:00
2:35 PM,44.6,26.6,49,30.07,10.0,NW,23.0,34.5,N/A,,Overcast,310,2013-04-18 19:35:00
2:55 PM,44.6,24.8,46,30.07,10.0,NW,21.9,32.2,N/A,,Mostly Cloudy,320,2013-04-18 19:55:00
3:15 PM,44.6,24.8,46,30.07,10.0,WNW,21.9,32.2,N/A,,Mostly Cloudy,300,2013-04-18 20:15:00
3:35 PM,46.4,24.8,43,30.07,10.0,NW,25.3,32.2,N/A,,Mostly Cloudy,320,2013-04-18 20:35:00
3:55 PM,44.6,23.0,43,30.07,10.0,NW,27.6,34.5,N/A,,Mostly Cloudy,320,2013-04-18 20:55:00
4:15 PM,44.6,23.0,43,30.07,10.0,NW,27.6,34.5,N/A,,Scattered Clouds,320,2013-04-18 21:15:00
4:35 PM,44.6,21.2,39,30.07,10.0,NW,26.5,33.4,N/A,,Scattered Clouds,320,2013-04-18 21:35:00
4:55 PM,44.6,23.0,43,30.07,10.0,NNW,26.5,34.5,N/A,,Scattered Clouds,330,2013-04-18 21:55:00
5:15 PM,44.6,21.2,39,30.08,10.0,NNW,25.3,31.1,N/A,,Mostly Cloudy,340,2013-04-18 22:15:00
5:35 PM,44.6,23.0,43,30.09,10.0,NW,23.0,32.2,N/A,,Mostly Cloudy,320,2013-04-18 22:35:00
5:55 PM,42.8,21.2,42,30.09,10.0,NW,21.9,26.5,N/A,,Mostly Cloudy,320,2013-04-18 22:55:00
6:15 PM,42.8,21.2,42,30.09,10.0,NW,20.7,25.3,N/A,,Mostly Cloudy,320,2013-04-18 23:15:00
6:35 PM,44.6,21.2,39,30.09,10.0,NW,20.7,28.8,N/A,,Scattered Clouds,320,2013-04-18 23:35:00
6:55 PM,42.8,21.2,42,30.10,10.0,NW,20.7,25.3,N/A,,Scattered Clouds,320,2013-04-18 23:55:00
7:15 PM,42.8,21.2,42,30.11,10.0,NW,20.7,28.8,N/A,,Scattered Clouds,320,2013-04-19 00:15:00
7:35 PM,42.8,21.2,42,30.11,10.0,NW,16.1,-,N/A,,Mostly Cloudy,320,2013-04-19 00:35:00
7:55 PM,41.0,21.2,45,30.12,10.0,NW,15.0,23.0,N/A,,Scattered Clouds,320,2013-04-19 00:55:00
8:15 PM,39.2,21.2,49,30.13,10.0,NW,16.1,23.0,N/A,,Scattered Clouds,320,2013-04-19 01:15:00
8:35 PM,37.4,21.2,52,30.14,10.0,NW,15.0,-,N/A,,Scattered Clouds,320,2013-04-19 01:35:00
9:55 PM,33.8,23.0,65,30.17,10.0,WNW,5.8,-,N/A,,Clear,300,2013-04-19 02:55:00
10:15 PM,32.0,23.0,69,30.18,10.0,West,8.1,-,N/A,,Clear,280,2013-04-19 03:15:00
10:35 PM,32.0,23.0,69,30.18,10.0,West,8.1,-,N/A,,Clear,270,2013-04-19 03:35:00
10:55 PM,32.0,23.0,69,30.18,10.0,West,6.9,-,N/A,,Clear,280,2013-04-19 03:55:00
11:15 PM,32.0,23.0,69,30.17,10.0,West,6.9,-,N/A,,Clear,280,2013-04-19 04:15:00
11:35 PM,32.0,23.0,69,30.17,10.0,West,8.1,-,N/A,,Clear,260,2013-04-19 04:35:00
11:55 PM,32.0,24.8,75,30.17,10.0,West,9.2,-,N/A,,Clear,270,2013-04-19 04:55:00